[[{"header":{"parameterUnit":"m.s-1","parameterCategory":1,"la1":30.2991,"la2":30.254,"lo1":-89.0895,"lo2":-89.0444,"dy":0.0017,"dx":0.0017,"nx":28,"ny":28,"refTime":"2024-07-16T09:00:00:Z","depth":0,"parameterNumber":2,"parameterNumberName":"U-component_of_WINDS"},"data":[0,0,0,0,0,0,0,0,0,0,0,0,0,0,0,0,0,0,0,0,0,0,0,0,0,0,0,0,0,0,0,0,0,0,0,0,0,0,0,0,0,0,0,0,0,0,0,0,0,0,0,0,0,0,0,0,0,0,2.4481,2.4481,0,2.4541,2.4542,2.4543,2.4494,2.4492,2.449,2.4488,2.4552,2.4556,2.4559,0,0,0,0,0,0,0,0,0,0,0,0,0,2.4322,2.4325,2.448,2.4481,2.4482,2.4541,2.4542,2.4543,2.4494,2.4492,2.4489,2.4487,2.4551,2.4555,2.456,0,0,0,0,0,0,0,0,0,0,0,0,0,2.4388,2.4326,2.448,2.4465,2.4464,2.4541,2.4542,2.4543,2.4495,2.4491,2.4488,2.4485,2.455,2.4555,2.456,2.4657,0,0,2.4577,2.4579,0,0,0,0,0,0,0,0,2.4384,2.4394,2.4466,2.4466,2.4465,2.4507,2.451,2.4581,2.4495,2.4483,2.4488,2.4484,2.454,2.4546,2.4564,2.466,2.4663,2.4578,2.4581,2.4583,2.4585,0,0,0,0,0,0,0,2.438,2.4391,2.4505,2.4467,2.4467,2.4455,2.4461,2.4523,2.4528,2.4484,2.448,2.4488,2.4539,2.4559,2.4565,2.4664,2.4577,2.4582,2.4586,2.4588,2.4838,2.4841,0,0,0,0,0,0,2.4376,2.4387,2.4503,2.4506,2.4416,2.446,2.4467,2.4497,2.4527,2.4529,2.4491,2.4486,2.4551,2.4559,2.4567,2.4679,2.4583,2.4588,2.4592,2.4834,2.4838,2.4842,0,0,0,0,0,0,2.4373,2.4387,2.45,2.4446,2.4459,2.4466,2.45,2.4499,2.4519,2.4533,2.4533,2.451,2.4549,2.456,2.4634,2.4681,2.4591,2.4596,2.483,2.4835,2.484,2.4906,0,0,0,0,0,0,2.4369,2.4386,2.4423,2.4447,2.4462,2.4566,2.4503,2.4503,2.4529,2.4523,2.4551,2.4553,2.4547,2.4626,2.4639,2.4687,2.46,2.4826,2.4833,2.4839,2.4899,2.4912,2.4923,0,0,0,0,0,2.4363,2.4441,2.4425,2.444,2.4509,2.4569,2.4577,2.4569,2.4533,2.4569,2.4577,2.4552,2.4674,2.4634,2.4649,2.4698,2.4823,2.4831,2.4838,2.4894,2.491,2.4923,0,0,0,0,0,0,2.4423,2.4443,2.4427,2.4514,2.454,2.456,2.4606,2.4586,2.4624,2.4616,2.4605,2.4612,2.4689,2.4702,2.4657,2.4792,2.4743,2.4754,2.478,2.4795,2.4807,2.4801,2.4605,0,0,0,0,0,2.4447,2.4493,2.4509,2.4584,2.4598,2.46,2.4626,2.4617,2.4643,2.4654,2.4668,2.4695,2.4739,2.4768,2.481,2.4902,2.4905,2.4943,2.4955,2.4965,2.4974,2.502,2.5035,2.4867,2.4867,2.4866,0,0,2.4495,2.4512,2.4543,2.4596,2.4615,2.4663,2.461,2.4664,2.4699,2.4663,2.4732,2.4743,2.4773,2.4855,2.4892,2.4868,2.5021,2.4974,2.4982,2.4986,2.5029,2.5045,2.5059,2.4872,2.4871,2.487,0,0,2.4608,2.4626,2.4689,2.4709,2.4737,2.4738,2.4753,2.4776,2.4781,2.4851,2.4824,2.4866,2.4943,2.4964,2.4985,2.5103,2.508,2.5117,2.5179,2.5224,2.5237,2.5249,2.5288,2.5303,2.5126,2.5127,2.5127,0,2.4665,2.4735,2.4725,2.4779,2.4802,2.4771,2.4834,2.4854,2.4895,2.4912,2.4884,2.4978,2.4996,2.5081,2.5109,2.5128,2.5144,2.5113,2.5236,2.5248,2.5259,2.5296,2.5311,2.5131,2.513,2.513,2.5129,0,2.4802,2.4852,2.4899,2.4937,2.4967,2.5026,2.5023,2.5054,2.5042,2.5045,2.5115,2.5135,2.5179,2.5199,2.5189,2.5282,2.5266,2.5238,2.5188,2.5279,2.5313,2.5328,2.5137,2.5135,2.5134,2.5133,0,0,2.4954,2.4984,2.5001,2.5016,2.5045,2.5083,2.514,2.5181,2.5206,2.5236,2.5281,2.5346,2.532,2.5343,2.5336,2.5376,2.5463,2.5342,2.5343,2.5361,2.5563,2.5582,2.5598,2.5449,2.5452,2.5454,2.556,0,2.5065,2.5162,2.5152,2.5245,2.5288,2.5258,2.5307,2.533,2.5335,2.5372,2.5378,2.5422,2.5386,2.5399,2.5438,2.5445,2.5503,2.5437,2.549,2.5492,2.548,2.5617,2.5637,2.5736,2.5573,2.5576,2.5577,0,2.5207,2.5238,2.5334,2.5353,2.5371,2.5415,2.545,2.5488,2.5512,2.5513,2.5538,2.5523,2.5579,2.5529,2.5605,2.556,2.5582,2.5588,2.5592,2.5594,2.5538,2.562,2.5768,2.5781,2.5599,2.5597,2.5596,0,2.5303,2.5371,2.5435,2.545,2.5475,2.5506,2.5518,2.5539,2.5563,2.5595,2.561,2.5649,2.5669,2.5699,2.5694,2.5659,2.577,2.5721,2.5771,2.5771,2.5793,2.5791,2.5943,2.5813,2.5812,2.5812,2.5812,0,2.5426,2.5485,2.5478,2.5518,2.5583,2.5572,2.5636,2.5644,2.5663,2.5703,2.5682,2.572,2.5712,2.575,2.5747,2.5809,2.5819,2.582,2.5818,2.582,2.582,2.5832,2.5824,2.5816,2.5815,2.5814,2.5814,0,2.5543,2.5542,2.561,2.5627,2.5633,2.5679,2.5693,2.573,2.5733,2.5784,2.5795,2.5799,2.5842,2.5841,2.5891,2.5889,2.5963,2.5955,2.5954,2.5952,2.6,2.5994,2.6162,2.6182,2.6042,2.6043,2.6044,0,2.562,2.5664,2.5685,2.571,2.5723,2.5764,2.5788,2.5779,2.5805,2.5834,2.5867,2.5908,2.594,2.6011,2.6019,2.6056,2.6047,2.6103,2.6052,2.6052,2.6043,2.6039,2.6042,2.6112,2.6114,2.6115,2.6116,0,2.5756,2.5752,2.5787,2.5821,2.585,2.5877,2.5902,2.5923,2.5917,2.5947,2.599,2.6015,2.6064,2.6105,2.614,2.6152,2.6133,2.6132,2.6145,2.6146,2.6143,2.6142,2.5978,2.6128,2.6127,2.6126,2.6125,2.6125,2.5853,2.5889,2.5909,2.5948,2.5965,2.5988,2.6022,2.6028,2.6063,2.6102,2.6095,2.6143,2.6164,2.6209,2.6225,2.6262,2.6242,2.6261,2.6265,2.6269,2.6273,2.6139,2.6269,2.6268,2.6268,2.6268,2.6268,0,2.5984,2.5995,2.6031,2.6064,2.6094,2.6073,2.6098,2.6125,2.6167,2.6188,2.6219,2.6268,2.6306,2.6316,2.6353,2.6381,2.6372,2.639,2.6387,2.6389,2.6291,2.6274,2.6396,2.6396,2.6396,2.6396,2.6396,2.6396,2.6056,2.6115,2.6113,2.618,2.6191,2.6236,2.6252,2.6272,2.6289,2.6343,2.6374,2.638,2.6396,2.6434,2.6468,2.647,2.6483,2.6504,2.6502,2.6409,2.6396,2.6384,2.6368,2.6508,2.6508,2.6597,2.6598,2.6598]},{"header":{"parameterUnit":"m.s-1","parameterCategory":1,"la1":30.2991,"la2":30.254,"lo1":-89.0895,"lo2":-89.0444,"dy":0.0017,"dx":0.0017,"nx":28,"ny":28,"refTime":"2024-07-16T09:00:00:Z","depth":0,"parameterNumber":3,"parameterNumberName":"V-component_of_WINDS"},"data":[0,0,0,0,0,0,0,0,0,0,0,0,0,0,0,0,0,0,0,0,0,0,0,0,0,0,0,0,0,0,0,0,0,0,0,0,0,0,0,0,0,0,0,0,0,0,0,0,0,0,0,0,0,0,0,0,0,0,3.4198,3.4199,0,3.4262,3.4263,3.4264,3.4242,3.4241,3.4239,3.4238,3.4299,3.4302,3.4305,0,0,0,0,0,0,0,0,0,0,0,0,0,3.4051,3.4054,3.4198,3.4199,3.42,3.4262,3.4263,3.4264,3.4242,3.4241,3.4239,3.4237,3.4298,3.4302,3.4305,0,0,0,0,0,0,0,0,0,0,0,0,0,3.4115,3.4055,3.4198,3.4196,3.4197,3.4262,3.4263,3.4264,3.4243,3.4241,3.4238,3.4237,3.4297,3.4302,3.4306,3.4375,0,0,3.4319,3.4321,0,0,0,0,0,0,0,0,3.4111,3.412,3.4196,3.4197,3.4197,3.4242,3.4234,3.4301,3.4243,3.4225,3.4238,3.4236,3.4282,3.4287,3.4304,3.4378,3.438,3.432,3.4322,3.4324,3.4326,0,0,0,0,0,0,0,3.4107,3.4117,3.4223,3.4197,3.4198,3.4191,3.4198,3.4246,3.4264,3.4227,3.4225,3.4233,3.4282,3.43,3.4305,3.4381,3.432,3.4324,3.4326,3.4328,3.4511,3.4513,0,0,0,0,0,0,3.4103,3.4114,3.4221,3.4225,3.4149,3.4195,3.4203,3.423,3.4264,3.4267,3.4235,3.4232,3.4293,3.43,3.4307,3.4388,3.4324,3.4328,3.4331,3.4509,3.4512,3.4514,0,0,0,0,0,0,3.41,3.4113,3.4218,3.4169,3.4182,3.42,3.423,3.4232,3.425,3.427,3.4273,3.425,3.4292,3.4301,3.4358,3.439,3.433,3.4334,3.4506,3.451,3.4513,3.4551,0,0,0,0,0,0,3.4096,3.4112,3.4139,3.417,3.4185,3.427,3.4232,3.4235,3.4258,3.4255,3.4285,3.4288,3.4291,3.4351,3.4362,3.4395,3.4338,3.4503,3.4508,3.4512,3.4547,3.4555,3.4562,0,0,0,0,0,3.409,3.4147,3.4141,3.4154,3.422,3.4272,3.428,3.4283,3.4261,3.4288,3.43,3.4287,3.4385,3.4357,3.4369,3.4403,3.4501,3.4507,3.4511,3.4543,3.4553,3.4562,0,0,0,0,0,0,3.4119,3.4151,3.4145,3.4213,3.424,3.4268,3.4302,3.4294,3.4327,3.4322,3.4323,3.433,3.4388,3.4402,3.4371,3.447,3.4439,3.4447,3.4459,3.4469,3.4477,3.4471,3.4341,0,0,0,0,0,3.4133,3.4174,3.42,3.4258,3.4271,3.4285,3.4307,3.4307,3.4334,3.4345,3.4362,3.4387,3.4423,3.4447,3.4482,3.4549,3.4553,3.4578,3.4586,3.4592,3.4598,3.4632,3.4642,3.453,3.453,3.453,0,0,3.4163,3.4186,3.4212,3.4264,3.4285,3.4325,3.4294,3.4339,3.4368,3.4351,3.4406,3.4419,3.4447,3.4509,3.4537,3.4521,3.463,3.4598,3.4603,3.4606,3.4638,3.4648,3.4658,3.4534,3.4533,3.4533,0,0,3.4238,3.426,3.431,3.4331,3.4363,3.4371,3.4383,3.4412,3.442,3.4475,3.4463,3.4497,3.456,3.458,3.4598,3.4678,3.4667,3.469,3.4729,3.4762,3.4771,3.4778,3.4805,3.4815,3.4696,3.4696,3.4696,0,3.4271,3.4332,3.4336,3.4381,3.4403,3.4392,3.444,3.446,3.4501,3.4516,3.4499,3.4576,3.4595,3.4659,3.4679,3.4695,3.4706,3.4686,3.477,3.4777,3.4785,3.481,3.482,3.4698,3.4698,3.4698,3.4698,0,3.437,3.4412,3.4448,3.4489,3.4515,3.4562,3.4571,3.4596,3.4594,3.4603,3.4657,3.4679,3.4716,3.4732,3.473,3.4796,3.4785,3.4769,3.4738,3.4798,3.4821,3.4831,3.4702,3.4701,3.47,3.47,0,0,3.4464,3.4506,3.4519,3.4536,3.4569,3.4601,3.4646,3.4684,3.4705,3.4733,3.4769,3.4822,3.4807,3.4827,3.4827,3.4856,3.4915,3.4836,3.4837,3.4848,3.4986,3.4997,3.5009,3.4908,3.491,3.4912,3.4983,0,3.454,3.4621,3.4624,3.4697,3.4735,3.4723,3.4762,3.4785,3.4795,3.4827,3.4836,3.4873,3.4851,3.4863,3.4892,3.4902,3.4943,3.4897,3.4939,3.4941,3.4931,3.5021,3.5033,3.51,3.4993,3.4994,3.4996,0,3.4639,3.4671,3.4748,3.4774,3.479,3.4825,3.4858,3.489,3.4915,3.492,3.4942,3.4938,3.4981,3.4949,3.5008,3.4976,3.4994,3.5001,3.5004,3.5007,3.4971,3.5024,3.5122,3.5131,3.501,3.5009,3.5008,0,3.4698,3.476,3.4813,3.4828,3.4861,3.4885,3.4899,3.4923,3.4945,3.4974,3.4987,3.5021,3.5038,3.5063,3.5066,3.5043,3.5124,3.5093,3.5127,3.5127,3.5144,3.5142,3.5243,3.5158,3.5158,3.5157,3.5157,0,3.4781,3.4828,3.4839,3.4872,3.4923,3.4926,3.4975,3.4988,3.5008,3.5041,3.5033,3.5064,3.5067,3.5098,3.5101,3.5147,3.5156,3.5159,3.5159,3.5159,3.5158,3.5169,3.5164,3.516,3.516,3.5159,3.5159,0,3.4855,3.4865,3.4922,3.4948,3.4955,3.4991,3.5012,3.5042,3.505,3.5092,3.5102,3.5114,3.515,3.5156,3.5198,3.52,3.5255,3.5251,3.5247,3.5245,3.5278,3.5274,3.5388,3.5402,3.531,3.5311,3.5311,0,3.4907,3.4942,3.4972,3.4994,3.501,3.5045,3.5067,3.5071,3.5094,3.5124,3.515,3.5185,3.5214,3.5271,3.5283,3.5314,3.531,3.5347,3.5314,3.5312,3.5308,3.5305,3.5307,3.5353,3.5354,3.5355,3.5356,0,3.4996,3.4999,3.5032,3.5066,3.5093,3.512,3.5145,3.5163,3.517,3.5195,3.5233,3.5255,3.5297,3.5331,3.5363,3.5375,3.5366,3.5366,3.5375,3.5375,3.537,3.5371,3.5262,3.5363,3.5362,3.5362,3.5361,3.5361,3.5059,3.5089,3.5115,3.5151,3.517,3.5194,3.5222,3.5234,3.5266,3.5301,3.5301,3.5341,3.5363,3.5404,3.5419,3.5449,3.5436,3.545,3.5453,3.5456,3.5458,3.5367,3.5455,3.5454,3.5454,3.5454,3.5454,0,3.5147,3.5162,3.5196,3.5231,3.5259,3.525,3.5276,3.53,3.5335,3.5358,3.5386,3.5427,3.546,3.5474,3.5505,3.5526,3.5522,3.5534,3.5532,3.5534,3.5469,3.5457,3.5536,3.5536,3.5536,3.5536,3.5536,3.5536,3.5196,3.5245,3.5251,3.5309,3.5324,3.5364,3.538,3.54,3.5418,3.5465,3.5492,3.5502,3.552,3.5552,3.5581,3.5584,3.5595,3.5608,3.5609,3.5548,3.5539,3.5531,3.552,3.5611,3.5611,3.5672,3.5672,3.5673]}]]